Regional Weather Roundup
Issued by NWS

Home | Current Version | Previous Version | Graphics & Text | Print | Product List | Glossary On
Versions: 1 2 3 4 5 6 7 8 9 10 11 12 13 14 15 16 17 18 19 20 21 22 23 24 25 26 27 28 29 30 31 32 33 34 35 36 37 38 39 40 41 42 43 44 45 46 47 48 49 50
018
ASUS43 KDTX 220510
RWRMI
MICHIGAN HOURLY REGIONAL WEATHER ROUNDUP
NATIONAL WEATHER SERVICE DETROIT/PONTIAC MI
100 AM EDT FRI MAY 22 2015

NOTE: "FAIR" INDICATES FEW OR NO CLOUDS BELOW 12,000 FEET WITH NO
SIGNIFICANT WEATHER AND/OR OBSTRUCTION TO VISIBILITY.

MIZ047>049-052>055-059>063-066>070-074>076-081>083-220600-
SOUTHEAST LOWER MICHIGAN

CITY           SKY/WX    TMP DP  RH WIND       PRES   REMARKS
ADRIAN         MOCLDY    50  36  58 W6        30.02S
ALMA           CLOUDY    53  27  35 N12G20    30.03R
ANN ARBOR      MOCLDY    50  39  66 SW6       30.00S
BAD AXE        CLOUDY    47  40  75 CALM      29.98S
CARO           PTCLDY    53  37  55 NW9       29.98R
DETROIT CITY   MOCLDY    55  34  45 W6        29.99R
DETROIT        CLOUDY    55  35  47 SW6       30.00S
FLINT          CLOUDY    55  41  59 W5        29.99R
GROSSE ILE     PTCLDY    55  36  47 W5        29.99S
HILLSDALE      MOCLDY    57  33  39 W9        30.02S
HOWELL         CLOUDY    54  37  52 SW6       29.99S

CITY           SKY/WX    TMP DP  RH WIND       PRES   REMARKS
JACKSON        CLOUDY    54  36  50 W8        30.00S
LAMBERTVILLE   PTCLDY    50  36  57 SW5       30.02F
LANSING        CLOUDY    56  38  50 W8        30.00R
LAPEER         CLOUDY    55  37  52 W3        29.98R
MASON          CLOUDY    53  37  54 W6        30.00R
MONROE         MOCLDY    52  39  62 SW5       29.99F
MT. CLEMENS    MOCLDY    56  37  47 SW7       29.95S
PONTIAC        CLOUDY    54  37  52 W3        29.98S
PORT HURON     CLOUDY    54  39  58 NE6       29.98R
TRI CITIES     PTCLDY    53  33  46 NW10      30.01R
MIDLAND        FAIR      50  32  50 NW5       30.01R
TROY           MOCLDY    58  35  42 W7        30.00S
SAGINAW HB     MOCLDY    54  32  43 NW13      30.00R
$$
MIZ043>046-050>051-056>058-064>065-071>073-077>080-220600-
SOUTHWEST LOWER MICHIGAN

CITY           SKY/WX    TMP DP  RH WIND       PRES   REMARKS
BATTLE CREEK   CLOUDY    56  37  49 SW9       30.01R
BENTON HARBOR  CLOUDY    58  38  47 SW5       30.01S
BIG RAPIDS     CLOUDY    49  24  37 N6        30.04R
COLDWATER      PTCLDY    51  34  52 SW7       30.02R
FREMONT        FAIR      52  21  29 NE8       30.03R
HOLLAND        CLOUDY    53  40  61 W8        30.03R
GRAND RAPIDS   CLOUDY    54  46  74 N5        30.02R
IONIA          LGT RAIN  56  41  58 NW6       30.01R
KALAMAZOO      MOCLDY    53  37  54 SW6       30.01S
LUDINGTON      PTCLDY    48  27  44 E3        30.05R
MARSHALL       CLOUDY    55  36  47 W6        30.00S
MOUNT PLEASANT PTCLDY    49  28  42 NW5       30.02R
MUSKEGON       CLOUDY    52  44  74 N5        30.03R
SOUTH HAVEN    LGT RAIN  56  44  63 W5        30.02R
$$
MIZ016>042-220600-
NORTHERN LOWER MICHIGAN

CITY           SKY/WX    TMP DP  RH WIND       PRES   REMARKS
ALPENA         CLEAR     43  27  53 VRB5      29.99R
BEAVER ISLAND  CLEAR     41  30  65 NW6       30.05R
BELLAIRE       CLEAR     33  32  95 CALM      30.05R
CADILLAC       CLEAR     44  24  46 CALM      30.03R
CHARLEVOIX     CLEAR     42  27  55 W3        30.07R
FRANKFORT      CLEAR     41  28  60 CALM      30.06R
GAYLORD        CLEAR     37  28  70 CALM      30.01S
GRAYLING       CLEAR     37  27  65 CALM      30.03S
HARBOR SPRINGS CLEAR     39  34  82 CALM      30.03R
HOUGHTON LAKE  CLEAR     42  27  55 NW5       30.03R
MANISTEE       CLEAR     39  28  65 CALM      30.06R
OSCODA         CLEAR     47  27  46 NW7       29.98R
PELLSTON       CLEAR     39  28  64 NW8       30.02S WCI  33
ROGERS CITY    CLEAR     43  26  50 W6        30.00R
TRAVERSE CITY  CLEAR     39  31  72 CALM      30.04R
$$
MIZ007>008-015-220600-
EASTERN UPPER MICHIGAN

CITY           SKY/WX    TMP DP  RH WIND       PRES   REMARKS
KINROSS        CLEAR     37  28  70 NW9       30.01R WCI  31
MACKINAC ISLAN CLEAR     41  27  56 NW9       30.01R
NEWBERRY       CLEAR     38  25  59 NW6       30.04R WCI  34
S. S. MARIE    CLEAR     39  27  62 N5        30.01R
MUNISING         N/A     36  26  67 S6        30.06R WCI  31
$$
MIZ004>006-011>014-085-220600-
CENTRAL UPPER MICHIGAN

CITY           SKY/WX    TMP DP  RH WIND       PRES   REMARKS
MANISTIQUE     CLEAR     36  22  56 NW5       30.05S WCI  32
ESCANABA       CLEAR     41  21  45 NW5       30.07R
MENOMINEE      CLEAR     39  34  81 CALM      30.07S
SAWYER-GWINN   CLEAR     43  13  29 N6        30.07R
$$
MIZ001>003-009>011-084-220600-
WESTERN UPPER MICHIGAN

CITY           SKY/WX    TMP DP  RH WIND       PRES   REMARKS
IRON MOUNTAIN  CLEAR     37  25  61 CALM      30.07R
HOUGHTON       CLEAR     36  24  62 CALM      30.07R
COPPER HARBOR    N/A     40  27  59 N3        30.08R
IRONWOOD       CLEAR     39  36  87 CALM      30.05S
$$

ABBREVIATIONS USED IN REMARKS
   TC - TEMPERATURE IN CELSIUS
  WCI - WIND CHILL INDEX
   HX - HEAT INDEX
  VSB - VISIBILITY




USA.gov is the U.S. government's official web portal to all federal, state and local government web resources and services.